Location: ???????
(38.3943°N, 23.7950°E)
Time: 05:07:25
(UTC+00:00)

Daily predictions for brighter satellites

Satellite Brightness Start Highest point End
(mag) Time Altitude Azimuth Time Altitude Azimuth Time Altitude Azimuth
MOZ.5/SAFIR/RUBIN 5/SL-8 3.6 00:05:16 75° S 00:05:39 89° W 00:10:18 10° NNW
Cosmos 1867 3.8 00:07:02 48° SSE 00:07:59 55° ESE 00:13:19 10° NE
Meteor 1-11 4.5 00:07:24 48° WSW 00:08:26 55° WNW 00:14:09 10° N
NPP 3.6 00:12:54 10° NNE 00:18:20 89° WNW 00:19:43 52° SSW
Cosmos 923 Rocket 3.9 00:14:17 10° NNW 00:19:28 65° WSW 00:20:13 57° SSW
Cosmos 1937 Rocket 4.2 00:19:39 37° W 00:20:40 41° WNW 00:25:37 10° N
NOSS 3-2 (C) 3.5 00:19:19 43° WSW 00:20:44 56° NW 00:26:35 10° NNE
ADEOS II 2.8 00:15:57 10° NNE 00:20:58 45° E 00:23:01 30° SSE
SL-16 R/B 4.0 00:16:39 10° SE 00:22:11 35° ENE 00:27:44 10° N
SL-8 Rocket 4.5 00:23:21 38° WSW 00:24:53 45° WNW 00:30:48 10° N
Cosmos 2227 4.2 00:23:52 49° SW 00:25:29 77° WNW 00:31:16 10° NNE
Cosmos 2228 2.8 00:22:38 10° N 00:26:57 79° W 00:27:21 71° SSW
USA 267 3.7 00:21:18 10° NE 00:27:33 47° SE 00:30:04 33° S
Cosmos 1544 Rocket 3.7 00:23:55 10° NNW 00:28:15 54° W 00:28:20 54° W
ALOS 3.6 00:29:55 10° NE 00:34:01 31° E 00:36:22 20° SE
Cosmos 1606 4.0 00:31:14 10° NNW 00:33:24 26° WNW 00:33:24 26° WNW
Cosmos 1844 4.0 00:32:18 36° S 00:34:32 62° ESE 00:40:15 10° NNE
H-2A R/B 3.4 00:31:23 10° N 00:35:18 58° WNW 00:35:34 56° W
Resurs 1-4 Rocket 2.0 00:30:55 10° N 00:36:12 79° WNW 00:37:56 44° SSW
Cosmos 2263 Rocket 4.0 00:42:06 15° W 00:44:32 20° NW 00:48:31 10° N
Cosmos 2239 Rocket 4.4 00:42:27 31° S 00:45:35 85° E 00:51:44 10° N
Cosmos 1727 Rocket 4.0 00:42:25 10° N 00:48:46 79° W 00:52:33 26° S
SL-08 R/B 4.5 00:48:59 30° S 00:52:21 85° W 00:58:39 10° N
Orbus 7S? 3.8 00:50:11 10° NW 00:53:18 67° NE 00:59:14 10° SE
COSMOS 2441 4.5 00:54:38 10° N 00:59:22 60° WNW 01:01:13 35° SW
Cosmos 921 Rocket 3.1 00:56:35 10° NNW 01:00:48 73° ENE 01:03:55 17° SSE
Dummy Sat-02 4.4 00:57:31 10° N 01:01:11 83° W 01:02:14 45° S
Cosmos 1680 Rocket 4.1 00:56:34 10° NW 01:01:15 35° W 01:02:17 32° SW
Cosmos 1000 Rocket 4.4 00:55:23 10° N 01:01:41 89° W 01:06:41 17° S
SAR-Lupe-4 4.5 00:59:43 10° NNE 01:03:08 43° E 01:04:47 25° SSE
Cosmos 1844 Rocket 2.8 01:00:50 32° SW 01:03:23 65° WNW 01:08:56 10° NNE
Cosmos 1606 Rocket 3.5 00:59:19 10° N 01:03:47 90° ENE 01:06:18 25° S
Cosmos 2112 Rocket 4.5 00:59:05 10° NW 01:03:53 40° WSW 01:05:24 32° SW
Cosmos 1818 4.1 01:02:43 10° NW 01:07:44 37° WSW 01:09:35 29° SSW
Timation 2 Rocket 4.2 01:08:39 22° S 01:13:11 71° ESE 01:19:36 10° NNE
Cosmos 2058 3.5 01:10:53 19° SSE 01:13:32 53° E 01:17:30 10° NNE
Dummy Sat-01 4.5 01:12:02 10° N 01:15:45 83° W 01:17:35 28° S
Cosmos 1726 Rocket 3.5 01:14:31 10° N 01:18:58 83° W 01:22:17 17° S
Meteor 1-28 Rocket 2.9 01:18:45 29° S 01:20:22 66° W 01:23:54 10° NNW
SEDSat Delta rocket 3.6 01:20:00 29° SSW 01:20:36 30° S 01:24:09 10° ESE
Cosmos 1238 Rocket 4.2 01:17:56 10° NNE 01:20:49 28° ENE 01:23:27 10° SE
IDEFIX/ARIANE 42P 4.1 01:19:24 10° NNW 01:23:17 22° WNW 01:25:41 16° W
USA 238 DEB 4.3 01:23:02 18° WSW 01:27:11 41° NW 01:33:26 10° NNE
USA 238 4.3 01:23:04 18° WSW 01:27:13 41° NW 01:33:29 10° NNE
ASTEX 1 3.6 01:26:39 21° SSW 01:29:40 52° W 01:34:25 10° NNW
CZ-2C R/B 4.2 01:27:37 10° N 01:32:12 30° WNW 01:34:59 18° WSW
Cosmos 1603 3.9 01:27:39 10° NNW 01:33:10 49° WSW 01:38:36 10° S
CZ-2C R/B 3.7 01:32:04 21° SW 01:33:56 25° W 01:38:20 10° NW
Envisat 3.3 01:30:01 10° NNE 01:35:04 67° ESE 01:40:01 10° S
Cosmos 1607 4.0 01:29:51 10° NNW 01:36:17 89° WSW 01:42:31 10° SSE
CZ-2C R/B 3.3 01:33:01 10° NNE 01:37:21 41° E 01:41:42 10° S
Cosmos 1048 Rocket 4.0 01:32:13 10° NNW 01:37:25 66° WSW 01:42:39 10° S
CZ-2D R/B 3.6 01:34:45 10° NNW 01:38:48 23° WNW 01:41:46 14° WSW
Delta 2 Rocket 3.7 01:36:32 20° WSW 01:38:53 41° SSW 01:42:57 10° ESE
Lacrosse 5 4.4 01:38:40 10° SE 01:40:05 11° ESE 01:41:31 10° E
Cosmos 1943 4.3 01:37:30 10° NW 01:41:54 24° WSW 01:44:31 17° SW
Iridium 2 4.0 01:43:26 22° W 01:43:36 22° W 01:45:38 10° NNW
Cosmos 1125 Rocket 3.8 01:40:23 19° SW 01:44:04 56° WNW 01:49:17 10° N
Cosmos 1605 Rocket 4.0 01:39:21 10° S 01:45:35 88° W 01:51:45 10° N
SAR-Lupe-1 4.4 01:42:25 10° N 01:45:54 49° WNW 01:48:10 19° SW
Cosmos 468 4.5 01:43:48 10° NNW 01:49:06 74° WSW 01:54:23 10° S
NOSS 2-3 (D) 4.1 01:47:16 12° S 01:50:22 41° ESE 01:53:56 10° NE
UNK 3.8 01:48:34 10° S 01:53:05 58° W 01:57:37 10° NNW
Alouette 2 Rocket 4.4 01:51:55 16° SW 01:55:19 35° WNW 01:58:53 10° N
Cosmos 2150 Rocket 4.0 01:53:56 12° SSW 01:58:44 77° WNW 02:04:03 10° NNE
Cosmos 2058 Rocket 3.2 01:54:45 10° NNW 01:59:06 57° W 02:03:22 10° S
ADEOS II 3.6 01:56:21 10° NNW 02:00:13 21° WNW 02:03:54 11° WSW
Cosmos 1758 Rocket 4.0 01:56:56 10° S 02:01:19 63° E 02:05:40 10° NNE
NOSS 2-2 (C) 2.8 02:00:51 15° SW 02:03:34 68° NW 02:06:39 10° NNE
Iridium 4 Rocket 3.5 02:00:16 10° NNW 02:04:41 52° W 02:09:27 10° SSW
SL-16 R/B 3.2 02:00:00 10° SSW 02:05:39 36° W 02:11:20 10° NNW
PAYLOAD A 4.3 02:02:04 10° NNE 02:07:20 77° ESE 02:12:43 10° S
Cosmos 1271 Rocket 3.5 02:04:33 10° S 02:07:59 48° E 02:11:27 10° NNE
Cosmos 1862 4.2 02:06:27 10° SSE 02:10:06 47° E 02:13:46 10° NNE
USA 267 3.9 02:04:17 10° NE 02:10:32 49° NW 02:16:45 10° WSW
ALOS 3.6 02:07:24 10° NNW 02:11:01 24° WNW 02:14:40 10° WSW
NOSS 2-2 (D) 2.8 02:09:31 11° SSW 02:12:57 87° ESE 02:16:04 10° NE
Genesis I 4.2 02:10:03 10° NNW 02:13:33 46° NE 02:17:03 10° SE
ATLAS 5 CENTAUR R/B 1.0 02:13:38 11° SW 02:16:39 61° NW 02:20:04 10° NNE
DMSP B5D2-2 4.2 02:11:38 10° SSE 02:16:54 83° ENE 02:22:12 10° N
NOSS 2-3 (E) 3.1 02:13:56 10° SW 02:17:34 80° WNW 02:21:23 10° NNE
Cosmos 1833 Rocket 3.9 02:13:05 10° NNW 02:18:32 48° ENE 02:23:57 10° SE
Cosmos 1626 Rocket 4.0 02:18:22 10° SSW 02:22:38 47° W 02:26:54 10° N
NOSS 2-3 (C) 3.2 02:19:31 10° SW 02:23:07 68° NW 02:26:55 10° NNE
Cosmos 1544 4.2 02:21:28 10° WSW 02:23:11 16° WNW 02:24:54 10° NW
Cosmos 1812 4.3 02:24:35 10° NW 02:26:47 16° W 02:28:59 10° SW
YAOGAN 6 2.6 02:24:12 10° N 02:27:17 47° WNW 02:30:20 10° SSW
SWARM A 4.4 02:24:32 10° S 02:28:03 89° W 02:31:36 10° N
Thor Agena Rocket 3.6 02:23:29 10° NNE 02:28:47 83° WNW 02:34:01 10° SSW
Meteor 2-3 Rocket 3.9 02:24:27 10° SSW 02:30:12 69° W 02:36:00 10° N
